owner,sensor,date,latitude,longitude,vertical_datum,direction_of_sea_water_velocity,sea_water_speed,upward_sea_water_velocity,qcFlag 
ADCP,ioos:station:wmo:42890:1,2014-10-01T00:01:00Z,27.6250,-90.4410,15.2,197.0,13.3,-9999.0,'11111222,11111222,99999999' 
ADCP,ioos:station:wmo:42890:1,2014-10-01T00:21:00Z,27.6250,-90.4410,15.2,211.0,17.9,-99999.0,'1111122,1111122,1199999999' 
ADCP,ioos:station:wmo:42890:1,2014-10-01T00:41:00Z,27.6250,-90.4410,15.2,205.0,14.1,-9999.0,'11111222,11111222,99999999' 
ADCP,ioos:station:wmo:42890:1,2014-10-01T01:01:00Z,27.6250,-90.4410,15.2,193.0,10.5,-99999.0,'1111122,1111122,1199999999' 
ADCP,ioos:station:wmo:42890:1,2014-10-01T01:21:00Z,27.6250,-90.4410,15.2,196.0,10.8,-9999.0,'11111222,11111222,99999999' 
ADCP,ioos:station:wmo:42890:1,2014-10-01T01:41:00Z,27.6250,-90.4410,15.2,176.0,9.3,-9999.0,'11133222,11111222,99999999' 
ADCP,ioos:station:wmo:42890:1,2014-10-01T02:01:00Z,27.6250,-90.4410,15.2,228.0,12.8,-9999.0,'11111222,11111222,99999999' 
ADCP,ioos:station:wmo:42890:1,2014-10-01T02:21:00Z,27.6250,-90.4410,15.2,165.0,4.7,-99999.0,'1111122,1111122,1199999999' 
ADCP,ioos:station:wmo:42890:1,2014-10-01T02:41:00Z,27.6250,-90.4410,15.2,173.0,10.6,-9999.0,'11111222,11111222,99999999' 
ADCP,ioos:station:wmo:42890:1,2014-10-01T03:01:00Z,27.6250,-90.4410,15.2,146.0,8.7,-9999.0,'11133222,11111222,99999999' 
ADCP,ioos:station:wmo:42890:1,2014-10-01T03:21:00Z,27.6250,-90.4410,15.2,169.0,7.3,-99999.0,'1111122,1111122,1199999999' 
ADCP,ioos:station:wmo:42890:1,2014-10-01T03:41:00Z,27.6250,-90.4410,15.2,156.0,7.6,-9999.0,'11133222,11111222,99999999' 
ADCP,ioos:station:wmo:42890:1,2014-10-01T04:01:00Z,27.6250,-90.4410,15.2,226.0,17.3,-9999.0,'11111222,11111222,99999999' 
ADCP,ioos:station:wmo:42890:1,2014-10-01T04:21:00Z,27.6250,-90.4410,15.2,171.0,5.8,-99999.0,'1111122,1111122,1199999999' 
ADCP,ioos:station:wmo:42890:1,2014-10-01T04:41:00Z,27.6250,-90.4410,15.2,188.0,6.5,-9999.0,'11133222,11111222,99999999' 
ADCP,ioos:station:wmo:42890:1,2014-10-01T05:01:00Z,27.6250,-90.4410,15.2,237.0,8.0,-9999.0,'11133222,11111222,99999999' 
ADCP,ioos:station:wmo:42890:1,2014-10-01T05:21:00Z,27.6250,-90.4410,15.2,132.0,2.5,-99999.0,'1111122,1111122,1199999999' 
ADCP,ioos:station:wmo:42890:1,2014-10-01T05:41:00Z,27.6250,-90.4410,15.2,91.0,7.8,-99999.0,'1111122,1111122,1199999999' 
ADCP,ioos:station:wmo:42890:1,2014-10-01T06:01:00Z,27.6250,-90.4410,15.2,86.0,10.9,-9999.0,'11111222,11111222,99999999' 
ADCP,ioos:station:wmo:42890:1,2014-10-01T06:21:00Z,27.6250,-90.4410,15.2,79.0,10.6,-9999.0,'11111222,11111222,99999999' 
ADCP,ioos:station:wmo:42890:1,2014-10-01T06:41:00Z,27.6250,-90.4410,15.2,73.0,13.1,-9999.0,'11111222,11111222,99999999' 
ADCP,ioos:station:wmo:42890:1,2014-10-01T07:01:00Z,27.6250,-90.4410,15.2,69.0,12.9,-9999.0,'11111222,11111222,99999999' 
ADCP,ioos:station:wmo:42890:1,2014-10-01T07:21:00Z,27.6250,-90.4410,15.2,67.0,15.6,-9999.0,'11111222,11111222,99999999' 
ADCP,ioos:station:wmo:42890:1,2014-10-01T07:41:00Z,27.6250,-90.4410,15.2,65.0,15.9,-9999.0,'11111222,11111222,99999999' 
ADCP,ioos:station:wmo:42890:1,2014-10-01T08:01:00Z,27.6250,-90.4410,15.2,69.0,16.9,-99999.0,'1111122,1111122,1199999999' 
ADCP,ioos:station:wmo:42890:1,2014-10-01T08:21:00Z,27.6250,-90.4410,15.2,70.0,20.2,-9999.0,'11111222,11111222,99999999' 
ADCP,ioos:station:wmo:42890:1,2014-10-01T08:41:00Z,27.6250,-90.4410,15.2,65.0,20.0,-9999.0,'11111222,11111222,99999999' 
ADCP,ioos:station:wmo:42890:1,2014-10-01T09:01:00Z,27.6250,-90.4410,15.2,67.0,21.7,-9999.0,'11111222,11111222,99999999' 
ADCP,ioos:station:wmo:42890:1,2014-10-01T09:21:00Z,27.6250,-90.4410,15.2,66.0,19.6,-99999.0,'1111122,1111122,1199999999' 
ADCP,ioos:station:wmo:42890:1,2014-10-01T09:41:00Z,27.6250,-90.4410,15.2,63.0,19.6,-9999.0,'11111222,11111222,99999999' 
ADCP,ioos:station:wmo:42890:1,2014-10-01T10:01:00Z,27.6250,-90.4410,15.2,66.0,21.9,-9999.0,'11111222,11111222,99999999' 
ADCP,ioos:station:wmo:42890:1,2014-10-01T10:21:00Z,27.6250,-90.4410,15.2,67.0,22.6,-99999.0,'1111122,1111122,1199999999' 
ADCP,ioos:station:wmo:42890:1,2014-10-01T10:41:00Z,27.6250,-90.4410,15.2,71.0,22.8,-9999.0,'11111222,11111222,99999999' 
ADCP,ioos:station:wmo:42890:1,2014-10-01T11:01:00Z,27.6250,-90.4410,15.2,75.0,22.3,-9999.0,'11111222,11111222,99999999' 
ADCP,ioos:station:wmo:42890:1,2014-10-01T11:21:00Z,27.6250,-90.4410,15.2,76.0,18.6,-99999.0,'1111122,1111122,1199999999' 
ADCP,ioos:station:wmo:42890:1,2014-10-01T11:41:00Z,27.6250,-90.4410,15.2,71.0,19.5,-9999.0,'11111222,11111222,99999999' 
ADCP,ioos:station:wmo:42890:1,2014-10-01T12:01:00Z,27.6250,-90.4410,15.2,69.0,21.7,-9999.0,'11111222,11111222,99999999' 
ADCP,ioos:station:wmo:42890:1,2014-10-01T12:21:00Z,27.6250,-90.4410,15.2,65.0,23.0,-99999.0,'1111122,1111122,1199999999' 
ADCP,ioos:station:wmo:42890:1,2014-10-01T12:41:00Z,27.6250,-90.4410,15.2,64.0,25.3,-9999.0,'11111222,11111222,99999999' 
ADCP,ioos:station:wmo:42890:1,2014-10-01T13:01:00Z,27.6250,-90.4410,15.2,67.0,23.3,-9999.0,'11111222,11111222,99999999' 
ADCP,ioos:station:wmo:42890:1,2014-10-01T13:21:00Z,27.6250,-90.4410,15.2,63.0,24.7,-99999.0,'1111122,1111122,1199999999' 
ADCP,ioos:station:wmo:42890:1,2014-10-01T13:41:00Z,27.6250,-90.4410,15.2,59.0,28.5,-9999.0,'11111222,11111222,99999999' 
ADCP,ioos:station:wmo:42890:1,2014-10-01T14:01:00Z,27.6250,-90.4410,15.2,58.0,28.8,-9999.0,'11111222,11111222,99999999' 
ADCP,ioos:station:wmo:42890:1,2014-10-01T14:21:00Z,27.6250,-90.4410,15.2,58.0,28.8,-99999.0,'1111122,1111122,1199999999' 
ADCP,ioos:station:wmo:42890:1,2014-10-01T14:41:00Z,27.6250,-90.4410,15.2,56.0,30.2,-9999.0,'11111222,11111222,99999999' 
ADCP,ioos:station:wmo:42890:1,2014-10-01T15:01:00Z,27.6250,-90.4410,15.2,58.0,30.0,-99999.0,'1111122,1111122,1199999999' 
ADCP,ioos:station:wmo:42890:1,2014-10-01T15:21:00Z,27.6250,-90.4410,15.2,58.0,29.4,-9999.0,'11111222,11111222,99999999' 
ADCP,ioos:station:wmo:42890:1,2014-10-01T15:41:00Z,27.6250,-90.4410,15.2,60.0,38.7,-9999.0,'11111222,11111222,99999999' 
ADCP,ioos:station:wmo:42890:1,2014-10-01T16:01:00Z,27.6250,-90.4410,15.2,61.0,43.6,-99999.0,'1111122,1111122,1199999999' 
ADCP,ioos:station:wmo:42890:1,2014-10-01T16:21:00Z,27.6250,-90.4410,15.2,60.0,42.3,-9999.0,'11111222,11111222,99999999' 
ADCP,ioos:station:wmo:42890:1,2014-10-01T16:41:00Z,27.6250,-90.4410,15.2,60.0,41.3,-9999.0,'11111222,11111222,99999999' 
ADCP,ioos:station:wmo:42890:1,2014-10-01T17:01:00Z,27.6250,-90.4410,15.2,62.0,41.7,-9999.0,'11111222,11111222,99999999' 
ADCP,ioos:station:wmo:42890:1,2014-10-01T17:21:00Z,27.6250,-90.4410,15.2,64.0,41.8,-99999.0,'1111122,1111122,1199999999' 
ADCP,ioos:station:wmo:42890:1,2014-10-01T17:41:00Z,27.6250,-90.4410,15.2,64.0,49.3,-9999.0,'11111222,11111222,99999999' 
ADCP,ioos:station:wmo:42890:1,2014-10-01T18:01:00Z,27.6250,-90.4410,15.2,69.0,45.1,-99999.0,'1111122,1111122,1199999999' 
ADCP,ioos:station:wmo:42890:1,2014-10-01T18:21:00Z,27.6250,-90.4410,15.2,71.0,47.6,-9999.0,'11111222,11111222,99999999' 
ADCP,ioos:station:wmo:42890:1,2014-10-01T18:41:00Z,27.6250,-90.4410,15.2,72.0,51.3,-9999.0,'11111222,11111222,99999999' 
ADCP,ioos:station:wmo:42890:1,2014-10-01T19:01:00Z,27.6250,-90.4410,15.2,75.0,38.4,-9999.0,'11111222,11111222,99999999' 
ADCP,ioos:station:wmo:42890:1,2014-10-01T19:21:00Z,27.6250,-90.4410,15.2,72.0,45.2,-9999.0,'11111222,11111222,99999999' 
ADCP,ioos:station:wmo:42890:1,2014-10-01T19:41:00Z,27.6250,-90.4410,15.2,74.0,49.8,-9999.0,'11111222,11111222,99999999' 
ADCP,ioos:station:wmo:42890:1,2014-10-01T20:01:00Z,27.6250,-90.4410,15.2,75.0,44.5,-9999.0,'11111222,11111222,99999999' 
ADCP,ioos:station:wmo:42890:1,2014-10-01T20:21:00Z,27.6250,-90.4410,15.2,77.0,40.3,-99999.0,'1111122,1111122,1199999999' 
ADCP,ioos:station:wmo:42890:1,2014-10-01T20:41:00Z,27.6250,-90.4410,15.2,75.0,44.9,-9999.0,'11111222,11111222,99999999' 
ADCP,ioos:station:wmo:42890:1,2014-10-01T21:01:00Z,27.6250,-90.4410,15.2,81.0,38.0,-9999.0,'11111222,11111222,99999999' 
ADCP,ioos:station:wmo:42890:1,2014-10-01T21:21:00Z,27.6250,-90.4410,15.2,82.0,41.2,-99999.0,'1111122,1111122,1199999999' 
ADCP,ioos:station:wmo:42890:1,2014-10-01T21:41:00Z,27.6250,-90.4410,15.2,84.0,32.6,-9999.0,'11111222,11111222,99999999' 
ADCP,ioos:station:wmo:42890:1,2014-10-01T22:01:00Z,27.6250,-90.4410,15.2,82.0,37.4,-9999.0,'11111222,11111222,99999999' 
ADCP,ioos:station:wmo:42890:1,2014-10-01T22:21:00Z,27.6250,-90.4410,15.2,84.0,41.4,-99999.0,'1111122,1111122,1199999999' 
ADCP,ioos:station:wmo:42890:1,2014-10-01T22:41:00Z,27.6250,-90.4410,15.2,90.0,29.6,-9999.0,'11111222,11111222,99999999' 
ADCP,ioos:station:wmo:42890:1,2014-10-01T23:01:00Z,27.6250,-90.4410,15.2,91.0,24.7,-9999.0,'11111222,11111222,99999999' 
ADCP,ioos:station:wmo:42890:1,2014-10-01T23:21:00Z,27.6250,-90.4410,15.2,93.0,22.7,-99999.0,'1111122,1111122,1199999999' 
ADCP,ioos:station:wmo:42890:1,2014-10-01T23:41:00Z,27.6250,-90.4410,15.2,92.0,21.0,-9999.0,'11111222,11111222,99999999' 
ADCP,ioos:station:wmo:42890:1,2014-10-02T00:01:00Z,27.6250,-90.4410,15.2,103.0,18.3,-99999.0,'1111122,1111122,1199999999' 
ADCP,ioos:station:wmo:42890:1,2014-10-02T00:21:00Z,27.6250,-90.4410,15.2,108.0,17.4,-9999.0,'11111222,11111222,99999999' 
ADCP,ioos:station:wmo:42890:1,2014-10-02T00:41:00Z,27.6250,-90.4410,15.2,114.0,14.0,-9999.0,'11111222,11111222,99999999' 
ADCP,ioos:station:wmo:42890:1,2014-10-02T01:01:00Z,27.6250,-90.4410,15.2,108.0,20.3,-99999.0,'1111122,1111122,1199999999' 
ADCP,ioos:station:wmo:42890:1,2014-10-02T01:21:00Z,27.6250,-90.4410,15.2,109.0,22.3,-9999.0,'11111222,11111222,99999999' 
ADCP,ioos:station:wmo:42890:1,2014-10-02T01:41:00Z,27.6250,-90.4410,15.2,123.0,13.2,-9999.0,'11111222,11111222,99999999' 
ADCP,ioos:station:wmo:42890:1,2014-10-02T02:01:00Z,27.6250,-90.4410,15.2,123.0,11.3,-9999.0,'11111222,11111222,99999999' 
ADCP,ioos:station:wmo:42890:1,2014-10-02T02:21:00Z,27.6250,-90.4410,15.2,102.0,12.9,-9999.0,'11111222,11111222,99999999' 
ADCP,ioos:station:wmo:42890:1,2014-10-02T02:41:00Z,27.6250,-90.4410,15.2,82.0,19.0,-9999.0,'11111222,11111222,99999999' 
ADCP,ioos:station:wmo:42890:1,2014-10-02T03:01:00Z,27.6250,-90.4410,15.2,108.0,10.7,-99999.0,'1111122,1111122,1199999999' 
ADCP,ioos:station:wmo:42890:1,2014-10-02T03:21:00Z,27.6250,-90.4410,15.2,94.0,7.6,-9999.0,'11133222,11111222,99999999' 
ADCP,ioos:station:wmo:42890:1,2014-10-02T03:41:00Z,27.6250,-90.4410,15.2,83.0,12.6,-9999.0,'11111222,11111222,99999999' 
ADCP,ioos:station:wmo:42890:1,2014-10-02T04:01:00Z,27.6250,-90.4410,15.2,81.0,9.0,-9999.0,'11133222,11111222,99999999' 
ADCP,ioos:station:wmo:42890:1,2014-10-02T04:21:00Z,27.6250,-90.4410,15.2,81.0,4.5,-99999.0,'1111122,1111122,1199999999' 
ADCP,ioos:station:wmo:42890:1,2014-10-02T04:41:00Z,27.6250,-90.4410,15.2,66.0,12.3,-9999.0,'11111222,11111222,99999999' 
ADCP,ioos:station:wmo:42890:1,2014-10-02T05:01:00Z,27.6250,-90.4410,15.2,68.0,6.2,-9999.0,'11133222,11111222,99999999' 
ADCP,ioos:station:wmo:42890:1,2014-10-02T05:21:00Z,27.6250,-90.4410,15.2,70.0,14.9,-99999.0,'1111122,1111122,1199999999' 
ADCP,ioos:station:wmo:42890:1,2014-10-02T05:41:00Z,27.6250,-90.4410,15.2,72.0,10.2,-9999.0,'11111222,11111222,99999999' 
ADCP,ioos:station:wmo:42890:1,2014-10-02T06:01:00Z,27.6250,-90.4410,15.2,72.0,12.2,-9999.0,'11111222,11111222,99999999' 
ADCP,ioos:station:wmo:42890:1,2014-10-02T06:21:00Z,27.6250,-90.4410,15.2,78.0,16.0,-99999.0,'1111122,1111122,1199999999' 
ADCP,ioos:station:wmo:42890:1,2014-10-02T06:41:00Z,27.6250,-90.4410,15.2,69.0,14.4,-9999.0,'11111222,11111222,99999999' 
ADCP,ioos:station:wmo:42890:1,2014-10-02T07:01:00Z,27.6250,-90.4410,15.2,66.0,13.3,-9999.0,'11111222,11111222,99999999' 
ADCP,ioos:station:wmo:42890:1,2014-10-02T07:21:00Z,27.6250,-90.4410,15.2,69.0,17.1,-99999.0,'1111122,1111122,1199999999' 
ADCP,ioos:station:wmo:42890:1,2014-10-02T07:41:00Z,27.6250,-90.4410,15.2,67.0,18.7,-9999.0,'11111222,11111222,99999999' 
ADCP,ioos:station:wmo:42890:1,2014-10-02T08:01:00Z,27.6250,-90.4410,15.2,57.0,17.2,-9999.0,'11111222,11111222,99999999' 
ADCP,ioos:station:wmo:42890:1,2014-10-02T08:21:00Z,27.6250,-90.4410,15.2,70.0,21.3,-99999.0,'1111122,1111122,1199999999' 
ADCP,ioos:station:wmo:42890:1,2014-10-02T08:41:00Z,27.6250,-90.4410,15.2,66.0,18.1,-9999.0,'11111222,11111222,99999999' 
ADCP,ioos:station:wmo:42890:1,2014-10-02T09:01:00Z,27.6250,-90.4410,15.2,59.0,20.7,-99999.0,'1111122,1111122,1199999999' 
ADCP,ioos:station:wmo:42890:1,2014-10-02T09:21:00Z,27.6250,-90.4410,15.2,58.0,21.4,-9999.0,'11111222,11111222,99999999' 
ADCP,ioos:station:wmo:42890:1,2014-10-02T09:41:00Z,27.6250,-90.4410,15.2,54.0,20.0,-9999.0,'11111222,11111222,99999999' 
ADCP,ioos:station:wmo:42890:1,2014-10-02T10:01:00Z,27.6250,-90.4410,15.2,52.0,25.6,-9999.0,'11111222,11111222,99999999' 
ADCP,ioos:station:wmo:42890:1,2014-10-02T10:21:00Z,27.6250,-90.4410,15.2,65.0,24.5,-99999.0,'1111122,1111122,1199999999' 
ADCP,ioos:station:wmo:42890:1,2014-10-02T10:41:00Z,27.6250,-90.4410,15.2,64.0,26.4,-9999.0,'11111222,11111222,99999999' 
ADCP,ioos:station:wmo:42890:1,2014-10-02T11:01:00Z,27.6250,-90.4410,15.2,63.0,27.2,-9999.0,'11111222,11111222,99999999' 
ADCP,ioos:station:wmo:42890:1,2014-10-02T11:21:00Z,27.6250,-90.4410,15.2,62.0,24.1,-99999.0,'1111122,1111122,1199999999' 
ADCP,ioos:station:wmo:42890:1,2014-10-02T11:41:00Z,27.6250,-90.4410,15.2,60.0,27.2,-9999.0,'11111222,11111222,99999999' 
ADCP,ioos:station:wmo:42890:1,2014-10-02T12:01:00Z,27.6250,-90.4410,15.2,54.0,25.5,-9999.0,'11111222,11111222,99999999' 
ADCP,ioos:station:wmo:42890:1,2014-10-02T12:21:00Z,27.6250,-90.4410,15.2,54.0,28.6,-9999.0,'11111222,11111222,99999999' 
ADCP,ioos:station:wmo:42890:1,2014-10-02T12:41:00Z,27.6250,-90.4410,15.2,53.0,30.5,-9999.0,'11111222,11111222,99999999' 
ADCP,ioos:station:wmo:42890:1,2014-10-02T13:01:00Z,27.6250,-90.4410,15.2,53.0,34.3,-9999.0,'11111222,11111222,99999999' 
ADCP,ioos:station:wmo:42890:1,2014-10-02T13:21:00Z,27.6250,-90.4410,15.2,54.0,37.6,-99999.0,'1111122,1111122,1199999999' 
ADCP,ioos:station:wmo:42890:1,2014-10-02T13:41:00Z,27.6250,-90.4410,15.2,55.0,43.3,-9999.0,'11111222,11111222,99999999' 
ADCP,ioos:station:wmo:42890:1,2014-10-02T14:01:00Z,27.6250,-90.4410,15.2,55.0,45.5,-9999.0,'11111222,11111222,99999999' 
ADCP,ioos:station:wmo:42890:1,2014-10-02T14:21:00Z,27.6250,-90.4410,15.2,58.0,39.5,-99999.0,'1111122,1111122,1199999999' 
ADCP,ioos:station:wmo:42890:1,2014-10-02T14:41:00Z,27.6250,-90.4410,15.2,58.0,39.0,-9999.0,'11111222,11111222,99999999' 
ADCP,ioos:station:wmo:42890:1,2014-10-02T15:01:00Z,27.6250,-90.4410,15.2,59.0,42.5,-99999.0,'1111122,1111122,1199999999' 
ADCP,ioos:station:wmo:42890:1,2014-10-02T15:21:00Z,27.6250,-90.4410,15.2,56.0,50.6,-9999.0,'11111222,11111222,99999999' 
ADCP,ioos:station:wmo:42890:1,2014-10-02T15:41:00Z,27.6250,-90.4410,15.2,58.0,45.1,-9999.0,'11111222,11111222,99999999' 
ADCP,ioos:station:wmo:42890:1,2014-10-02T16:01:00Z,27.6250,-90.4410,15.2,61.0,46.5,-99999.0,'1111122,1111122,1199999999' 
ADCP,ioos:station:wmo:42890:1,2014-10-02T16:21:00Z,27.6250,-90.4410,15.2,64.0,57.2,-9999.0,'11111222,11111222,99999999' 
ADCP,ioos:station:wmo:42890:1,2014-10-02T16:41:00Z,27.6250,-90.4410,15.2,63.0,45.0,-9999.0,'11111222,11111222,99999999' 
ADCP,ioos:station:wmo:42890:1,2014-10-02T17:01:00Z,27.6250,-90.4410,15.2,61.0,53.4,-9999.0,'11111222,11111222,99999999' 
ADCP,ioos:station:wmo:42890:1,2014-10-02T17:21:00Z,27.6250,-90.4410,15.2,60.0,53.2,-9999.0,'11111222,11111222,99999999' 
ADCP,ioos:station:wmo:42890:1,2014-10-02T17:41:00Z,27.6250,-90.4410,15.2,57.0,55.8,-9999.0,'11111222,11111222,99999999' 
ADCP,ioos:station:wmo:42890:1,2014-10-02T18:01:00Z,27.6250,-90.4410,15.2,57.0,62.1,-9999.0,'11111222,11111222,99999999' 
ADCP,ioos:station:wmo:42890:1,2014-10-02T18:21:00Z,27.6250,-90.4410,15.2,55.0,65.8,-99999.0,'1111122,1111122,1199999999' 
ADCP,ioos:station:wmo:42890:1,2014-10-02T18:41:00Z,27.6250,-90.4410,15.2,58.0,67.2,-9999.0,'11111222,11111222,99999999' 
ADCP,ioos:station:wmo:42890:1,2014-10-02T19:01:00Z,27.6250,-90.4410,15.2,58.0,65.5,-9999.0,'11111222,11111222,99999999' 
ADCP,ioos:station:wmo:42890:1,2014-10-02T19:21:00Z,27.6250,-90.4410,15.2,61.0,56.0,-9999.0,'11111222,11111222,99999999' 
ADCP,ioos:station:wmo:42890:1,2014-10-02T19:41:00Z,27.6250,-90.4410,15.2,63.0,57.5,-9999.0,'11111222,11111222,99999999' 
ADCP,ioos:station:wmo:42890:1,2014-10-02T20:01:00Z,27.6250,-90.4410,15.2,65.0,77.7,-9999.0,'11111222,11111222,99999999' 
ADCP,ioos:station:wmo:42890:1,2014-10-02T20:21:00Z,27.6250,-90.4410,15.2,65.0,65.8,-99999.0,'1111122,1111122,1199999999' 
ADCP,ioos:station:wmo:42890:1,2014-10-02T20:41:00Z,27.6250,-90.4410,15.2,65.0,68.9,-9999.0,'11111222,11111222,99999999' 
ADCP,ioos:station:wmo:42890:1,2014-10-02T21:01:00Z,27.6250,-90.4410,15.2,67.0,63.2,-9999.0,'11111222,11111222,99999999' 
ADCP,ioos:station:wmo:42890:1,2014-10-02T21:21:00Z,27.6250,-90.4410,15.2,68.0,64.6,-99999.0,'1111122,1111122,1199999999' 
ADCP,ioos:station:wmo:42890:1,2014-10-02T21:41:00Z,27.6250,-90.4410,15.2,68.0,77.3,-9999.0,'11111222,11111222,99999999' 
ADCP,ioos:station:wmo:42890:1,2014-10-02T22:01:00Z,27.6250,-90.4410,15.2,72.0,66.0,-9999.0,'11111222,11111222,99999999' 
ADCP,ioos:station:wmo:42890:1,2014-10-02T22:21:00Z,27.6250,-90.4410,15.2,75.0,55.3,-9999.0,'11111222,11111222,99999999' 
ADCP,ioos:station:wmo:42890:1,2014-10-02T22:41:00Z,27.6250,-90.4410,15.2,75.0,55.8,-9999.0,'11111222,11111222,99999999' 
ADCP,ioos:station:wmo:42890:1,2014-10-02T23:01:00Z,27.6250,-90.4410,15.2,78.0,45.0,-9999.0,'11111222,11111222,99999999' 
ADCP,ioos:station:wmo:42890:1,2014-10-02T23:21:00Z,27.6250,-90.4410,15.2,76.0,45.3,-99999.0,'1111122,1111122,1199999999' 
ADCP,ioos:station:wmo:42890:1,2014-10-02T23:41:00Z,27.6250,-90.4410,15.2,76.0,45.7,-9999.0,'11111222,11111222,99999999' 
ADCP,ioos:station:wmo:42890:1,2014-10-03T00:01:00Z,27.6250,-90.4410,15.2,76.0,39.7,-9999.0,'11111222,11111222,99999999' 
ADCP,ioos:station:wmo:42890:1,2014-10-03T00:21:00Z,27.6250,-90.4410,15.2,76.0,41.3,-99999.0,'1111122,1111122,1199999999' 
ADCP,ioos:station:wmo:42890:1,2014-10-03T00:41:00Z,27.6250,-90.4410,15.2,74.0,40.2,-9999.0,'11111222,11111222,99999999' 
ADCP,ioos:station:wmo:42890:1,2014-10-03T01:01:00Z,27.6250,-90.4410,15.2,71.0,35.8,-9999.0,'11111222,11111222,99999999' 
ADCP,ioos:station:wmo:42890:1,2014-10-03T01:21:00Z,27.6250,-90.4410,15.2,71.0,35.9,-99999.0,'1111122,1111122,1199999999' 
ADCP,ioos:station:wmo:42890:1,2014-10-03T01:41:00Z,27.6250,-90.4410,15.2,71.0,34.6,-9999.0,'11111222,11111222,99999999' 
ADCP,ioos:station:wmo:42890:1,2014-10-03T02:01:00Z,27.6250,-90.4410,15.2,69.0,30.9,-9999.0,'11111222,11111222,99999999' 
ADCP,ioos:station:wmo:42890:1,2014-10-03T02:21:00Z,27.6250,-90.4410,15.2,66.0,37.4,-99999.0,'1111122,1111122,1199999999' 
ADCP,ioos:station:wmo:42890:1,2014-10-03T02:41:00Z,27.6250,-90.4410,15.2,66.0,32.4,-9999.0,'11111222,11111222,99999999' 
ADCP,ioos:station:wmo:42890:1,2014-10-03T03:01:00Z,27.6250,-90.4410,15.2,68.0,33.1,-9999.0,'11111222,11111222,99999999' 
ADCP,ioos:station:wmo:42890:1,2014-10-03T03:21:00Z,27.6250,-90.4410,15.2,68.0,32.3,-9999.0,'11111222,11111222,99999999' 
ADCP,ioos:station:wmo:42890:1,2014-10-03T03:41:00Z,27.6250,-90.4410,15.2,64.0,31.1,-9999.0,'11111222,11111222,99999999' 
ADCP,ioos:station:wmo:42890:1,2014-10-03T04:01:00Z,27.6250,-90.4410,15.2,62.0,31.1,-9999.0,'11111222,11111222,99999999' 
ADCP,ioos:station:wmo:42890:1,2014-10-03T04:21:00Z,27.6250,-90.4410,15.2,60.0,27.8,-99999.0,'1111122,1111122,1199999999' 
ADCP,ioos:station:wmo:42890:1,2014-10-03T04:41:00Z,27.6250,-90.4410,15.2,57.0,30.5,-9999.0,'11111222,11111222,99999999' 
ADCP,ioos:station:wmo:42890:1,2014-10-03T05:01:00Z,27.6250,-90.4410,15.2,52.0,32.0,-9999.0,'11111222,11111222,99999999' 
ADCP,ioos:station:wmo:42890:1,2014-10-03T05:21:00Z,27.6250,-90.4410,15.2,50.0,32.9,-99999.0,'1111122,1111122,1199999999' 
ADCP,ioos:station:wmo:42890:1,2014-10-03T05:41:00Z,27.6250,-90.4410,15.2,51.0,36.0,-9999.0,'11111222,11111222,99999999' 
ADCP,ioos:station:wmo:42890:1,2014-10-03T06:01:00Z,27.6250,-90.4410,15.2,49.0,34.0,-9999.0,'11111222,11111222,99999999' 
ADCP,ioos:station:wmo:42890:1,2014-10-03T06:21:00Z,27.6250,-90.4410,15.2,50.0,34.4,-99999.0,'1111122,1111122,1199999999' 
ADCP,ioos:station:wmo:42890:1,2014-10-03T06:41:00Z,27.6250,-90.4410,15.2,53.0,36.0,-9999.0,'11111222,11111222,99999999' 
ADCP,ioos:station:wmo:42890:1,2014-10-03T07:01:00Z,27.6250,-90.4410,15.2,54.0,38.9,-9999.0,'11111222,11111222,99999999' 
ADCP,ioos:station:wmo:42890:1,2014-10-03T07:21:00Z,27.6250,-90.4410,15.2,52.0,36.9,-99999.0,'1111122,1111122,1199999999' 
ADCP,ioos:station:wmo:42890:1,2014-10-03T07:41:00Z,27.6250,-90.4410,15.2,48.0,48.9,-9999.0,'11111222,11111222,99999999' 
ADCP,ioos:station:wmo:42890:1,2014-10-03T08:01:00Z,27.6250,-90.4410,15.2,50.0,52.0,-9999.0,'11111222,11111222,99999999' 
ADCP,ioos:station:wmo:42890:1,2014-10-03T08:21:00Z,27.6250,-90.4410,15.2,49.0,50.0,-99999.0,'1111122,1111122,1199999999' 
ADCP,ioos:station:wmo:42890:1,2014-10-03T08:41:00Z,27.6250,-90.4410,15.2,52.0,53.4,-9999.0,'11111222,11111222,99999999' 
ADCP,ioos:station:wmo:42890:1,2014-10-03T09:01:00Z,27.6250,-90.4410,15.2,53.0,51.7,-9999.0,'11111222,11111222,99999999' 
ADCP,ioos:station:wmo:42890:1,2014-10-03T09:21:00Z,27.6250,-90.4410,15.2,52.0,53.3,-99999.0,'1111122,1111122,1199999999' 
ADCP,ioos:station:wmo:42890:1,2014-10-03T09:41:00Z,27.6250,-90.4410,15.2,53.0,51.7,-9999.0,'11111222,11111222,99999999' 
ADCP,ioos:station:wmo:42890:1,2014-10-03T10:01:00Z,27.6250,-90.4410,15.2,53.0,52.5,-9999.0,'11111222,11111222,99999999' 
ADCP,ioos:station:wmo:42890:1,2014-10-03T10:21:00Z,27.6250,-90.4410,15.2,54.0,53.7,-99999.0,'1111122,1111122,1199999999' 
ADCP,ioos:station:wmo:42890:1,2014-10-03T10:41:00Z,27.6250,-90.4410,15.2,52.0,54.3,-9999.0,'11111222,11111222,99999999' 
ADCP,ioos:station:wmo:42890:1,2014-10-03T11:01:00Z,27.6250,-90.4410,15.2,53.0,57.0,-9999.0,'11111222,11111222,99999999' 
ADCP,ioos:station:wmo:42890:1,2014-10-03T11:21:00Z,27.6250,-90.4410,15.2,58.0,55.9,-99999.0,'1111122,1111122,1199999999' 
ADCP,ioos:station:wmo:42890:1,2014-10-03T11:41:00Z,27.6250,-90.4410,15.2,60.0,55.6,-9999.0,'11111222,11111222,99999999' 
ADCP,ioos:station:wmo:42890:1,2014-10-03T12:01:00Z,27.6250,-90.4410,15.2,60.0,59.7,-9999.0,'11111222,11111222,99999999' 
ADCP,ioos:station:wmo:42890:1,2014-10-03T12:21:00Z,27.6250,-90.4410,15.2,59.0,59.2,-99999.0,'1111122,1111122,1199999999' 
ADCP,ioos:station:wmo:42890:1,2014-10-03T12:41:00Z,27.6250,-90.4410,15.2,59.0,60.5,-9999.0,'11111222,11111222,99999999' 
ADCP,ioos:station:wmo:42890:1,2014-10-03T13:01:00Z,27.6250,-90.4410,15.2,60.0,58.3,-9999.0,'11111222,11111222,99999999' 
ADCP,ioos:station:wmo:42890:1,2014-10-03T13:21:00Z,27.6250,-90.4410,15.2,61.0,60.3,-99999.0,'1111122,1111122,1199999999' 
ADCP,ioos:station:wmo:42890:1,2014-10-03T13:41:00Z,27.6250,-90.4410,15.2,63.0,60.7,-9999.0,'11111222,11111222,99999999' 
ADCP,ioos:station:wmo:42890:1,2014-10-03T14:01:00Z,27.6250,-90.4410,15.2,63.0,63.8,-9999.0,'11111222,11111222,99999999' 
ADCP,ioos:station:wmo:42890:1,2014-10-03T14:21:00Z,27.6250,-90.4410,15.2,62.0,62.9,-99999.0,'1111122,1111122,1199999999' 
ADCP,ioos:station:wmo:42890:1,2014-10-03T14:41:00Z,27.6250,-90.4410,15.2,61.0,60.7,-99999.0,'1111122,1111122,1199999999' 
ADCP,ioos:station:wmo:42890:1,2014-10-03T15:01:00Z,27.6250,-90.4410,15.2,71.0,47.0,-9999.0,'11111222,11111222,99999999' 
ADCP,ioos:station:wmo:42890:1,2014-10-03T15:21:00Z,27.6250,-90.4410,15.2,69.0,50.3,-9999.0,'11111222,11111222,99999999' 
ADCP,ioos:station:wmo:42890:1,2014-10-03T15:41:00Z,27.6250,-90.4410,15.2,74.0,38.0,-9999.0,'11111222,11111222,99999999' 
ADCP,ioos:station:wmo:42890:1,2014-10-03T16:01:00Z,27.6250,-90.4410,15.2,84.0,35.8,-99999.0,'1111122,1111122,1199999999' 
ADCP,ioos:station:wmo:42890:1,2014-10-03T16:21:00Z,27.6250,-90.4410,15.2,84.0,40.7,-9999.0,'11111222,11111222,99999999' 
ADCP,ioos:station:wmo:42890:1,2014-10-03T16:41:00Z,27.6250,-90.4410,15.2,84.0,36.7,-9999.0,'11111222,11111222,99999999' 
ADCP,ioos:station:wmo:42890:1,2014-10-03T17:01:00Z,27.6250,-90.4410,15.2,81.0,35.0,-9999.0,'11111222,11111222,99999999' 